Temperature
15 15 15 16 16 16 15 15 15 14 14 14 13 13 13 13 12 12 12 12 12 12 12 12 12 12 12 12 12 12 11 11 11 11 11 11 11 11 11 11 10 10 10
15 15 14 14 15 15 14 14 14 13 13 13 13 13 13 12 12 12 12 12 12 12 12 12 12 12 11 11 11 11 11 11 11 11 11 11 11 11 10 10 10 10 9
14 14 14 14 14 14 14 14 13 13 13 13 13 13 13 12 12 12 12 12 12 12 12 12 11 11 11 11 11 11 11 11 11 11 11 11 10 10 10 10 9 9 8
15 14 14 14 14 14 13 13 13 13 13 13 13 13 13 12 12 12 12 12 12 12 12 12 12 11 11 11 11 11 11 11 11 10 10 10 10 10 10 9 8 8 7
14 14 14 14 14 13 13 13 13 13 13 13 13 12 12 12 12 12 11 11 12 12 12 12 12 11 11 11 11 11 11 10 10 10 10 10 10 9 9 9 8 7 7
14 14 14 14 13 13 13 13 12 12 12 12 12 12 12 12 12 12 12 11 11 12 12 12 12 11 11 11 10 10 10 10 10 10 10 9 9 9 9 8 7 7 6
15 14 14 14 13 13 13 13 12 12 12 11 11 11 11 11 11 12 11 11 11 11 11 12 12 11 11 11 10 10 10 10 9 9 9 9 9 8 8 7 7 6 6
15 14 14 14 13 13 13 13 12 12 12 11 11 11 10 10 11 11 11 11 11 11 11 11 11 11 11 11 10 10 9 9 9 8 8 8 8 7 7 7 6 6 5
15 14 14 13 13 12 12 12 12 12 12 11 11 11 11 11 11 11 11 11 11 11 11 10 10 10 10 10 10 10 9 8 8 8 7 7 7 6 6 6 5 5 5
14 14 13 13 12 12 12 12 12 12 12 11 11 11 11 11 11 11 11 11 10 10 10 10 9 9 9 9 9 9 8 8 7 7 7 6 6 6 5 5 4 4 4
13 13 13 13 12 12 12 12 12 12 11 11 11 11 10 10 11 11 11 11 10 9 9 9 8 8 8 8 8 8 8 7 6 6 6 6 5 5 4 4 4 3 3
13 13 13 12 12 12 12 12 11 11 11 11 11 10 10 10 10 10 10 10 10 9 8 8 7 7 7 6 6 7 6 6 5 5 5 5 5 4 3 4 3 3 3
12 12 12 12 12 12 11 11 11 11 11 11 11 10 10 10 10 10 10 9 9 9 8 7 7 6 6 5 5 5 5 5 4 5 5 4 4 4 3 3 3 3 2
11 11 11 11 11 11 11 11 11 11 11 10 10 10 10 10 9 9 9 8 8 7 7 7 6 5 5 5 4 4 4 3 3 4 4 3 3 3 3 3 2 2 2
10 10 11 11 11 11 11 10 10 10 10 10 10 10 9 9 9 9 8 8 7 6 6 6 6 5 5 4 4 3 3 2 3 3 3 2 2 2 2 2 2 1 1
9 9 9 10 10 10 10 10 10 10 9 9 9 9 9 9 8 8 8 7 7 6 5 5 5 5 4 3 3 2 2 2 2 2 1 1 1 1 1 1 1 0 -0
8 8 8 8 8 8 8 9 8 8 8 8 8 8 8 8 8 7 7 6 5 5 4 4 4 3 3 2 2 1 1 1 1 1 0 0 0 -0 -0 -0 -1 -1 -1
7 7 7 7 7 7 7 7 7 7 7 7 7 7 7 7 6 6 5 5 4 4 3 3 3 2 2 1 1 0 0 -0 -0 -0 -1 -1 -1 -1 -1 -2 -2 -2 -2
6 6 6 6 7 6 6 6 6 6 6 6 6 6 5 5 5 4 3 3 3 2 2 2 2 1 1 0 -0 -1 -1 -1 -1 -1 -2 -2 -2 -2 -3 -3 -3 -3 -3
6 6 6 5 5 5 5 5 5 5 5 4 4 4 3 3 2 2 2 1 1 1 1 1 1 0 -1 -1 -2 -2 -2 -2 -2 -3 -3 -3 -3 -3 -3 -3 -4 -4 -4
4 4 4 4 4 4 4 4 3 3 3 3 2 2 1 1 1 1 0 0 0 -0 -0 -0 -1 -2 -2 -3 -3 -4 -4 -4 -4 -3 -3 -3 -4 -3 -3 -3 -4 -4 -4
3 3 3 2 2 2 2 2 2 2 1 1 1 1 0 0 -0 -0 -1 -1 -1 -1 -2 -2 -3 -3 -4 -4 -5 -5 -5 -5 -4 -4 -5 -4 -4 -4 -3 -3 -3 -4 -4
2 2 1 1 1 0 0 1 0 0 0 0 -0 -0 -1 -1 -1 -1 -2 -2 -2 -3 -3 -3 -4 -5 -5 -6 -6 -6 -6 -6 -5 -5 -6 -4 -3 -4 -3 -3 -4 -4 -4
1 1 1 0 0 -0 -0 -0 -0 -0 -1 -1 -1 -1 -2 -2 -2 -3 -3 -3 -4 -4 -4 -5 -5 -6 -6 -6 -6 -6 -6 -6 -5 -5 -6 -5 -4 -4 -3 -3 -3 -3 -4
0 0 -0 -0 -0 -1 -1 -1 -1 -1 -2 -2 -2 -3 -3 -3 -4 -4 -4 -5 -5 -5 -6 -6 -6 -6 -6 -6 -6 -6 -7 -7 -6 -5 -6 -6 -5 -5 -3 -2 -3 -3 -4
-0 -0 -1 -1 -1 -1 -2 -2 -2 -2 -3 -3 -3 -4 -4 -4 -5 -5 -5 -6 -6 -6 -6 -6 -6 -6 -6 -6 -7 -7 -7 -7 -7 -7 -6 -7 -6 -6 -5 -3 -3 -3 -4
Wind_Speed
4 6 8 12 13 13 12 10 10 9 8 9 9 7 8 8 7 14 15 16 15 13 11 10 9 8 8 8 8 8 8 8 8 8 8 8 9 9 9 9 10 10 10
8 6 5 7 10 12 12 11 9 6 6 6 5 6 6 8 8 15 17 16 16 14 13 11 10 9 8 8 8 7 7 7 7 7 7 7 7 7 7 7 8 8 9
11 8 4 4 8 11 11 10 9 7 5 5 5 5 5 6 7 13 18 17 16 15 14 13 11 10 9 9 8 7 6 6 5 5 5 5 5 5 5 6 6 7 8
14 9 5 5 10 11 9 5 5 5 5 5 5 4 4 4 5 9 16 18 18 16 16 14 13 12 11 10 8 7 6 5 4 3 2 3 3 3 4 5 6 7 8
15 11 6 7 11 7 5 6 5 5 5 5 5 5 5 4 4 6 9 16 18 19 18 16 15 14 13 11 10 8 6 5 3 2 1 1 2 3 4 5 6 7 8
13 12 7 8 9 6 7 7 7 6 5 6 5 5 5 5 4 5 6 11 15 19 20 19 17 15 15 14 12 10 8 6 4 3 2 1 2 3 5 6 7 8 9
11 10 6 7 8 8 9 9 7 7 7 5 4 2 3 4 6 6 5 6 9 16 18 20 19 18 16 16 14 12 10 7 5 4 3 2 3 4 6 8 9 10 11
12 8 7 8 8 8 9 10 8 7 6 7 5 4 3 4 6 7 6 7 7 12 13 18 20 20 19 18 16 14 11 9 7 5 4 3 4 6 7 9 10 12 13
13 11 8 7 8 9 9 10 10 11 9 8 7 6 5 7 4 5 8 8 8 7 8 13 17 19 19 19 18 16 13 10 8 6 5 5 6 7 9 10 12 13 14
11 13 12 10 10 9 10 10 10 10 9 8 7 7 5 4 5 4 3 5 7 7 8 7 11 15 17 17 18 17 15 11 9 7 6 6 7 9 10 12 13 14 15
8 10 11 11 12 11 11 11 10 11 10 10 7 5 7 5 3 4 4 4 4 4 4 5 7 10 14 15 16 17 15 12 10 8 7 7 8 10 12 13 14 15 16
5 7 8 10 11 11 12 12 11 12 12 11 10 8 6 5 6 5 4 3 3 2 1 1 3 6 10 12 14 15 14 12 10 8 8 9 10 12 13 15 16 17 18
5 6 5 7 8 10 11 11 11 12 12 11 12 10 9 8 4 5 5 4 3 1 1 1 1 4 6 8 10 13 12 10 9 8 9 11 12 13 14 16 17 18 19
5 6 5 5 5 6 8 9 10 10 9 11 11 9 7 6 5 5 5 6 4 2 2 2 1 2 5 6 8 10 9 9 9 10 11 13 14 15 16 17 18 18 19
5 6 6 5 4 4 4 5 6 7 7 7 7 7 6 4 3 3 3 4 6 7 7 6 4 3 5 6 9 8 7 8 10 12 13 15 16 16 17 18 19 19 20
7 7 8 7 7 6 5 3 2 2 3 2 2 3 3 2 3 2 2 2 3 4 4 4 3 2 5 7 9 8 7 9 12 14 15 16 17 17 18 19 20 20 20
8 8 8 8 7 7 7 5 4 3 2 2 3 3 4 5 5 4 3 3 2 2 3 2 2 2 4 4 5 6 7 9 10 13 16 17 17 18 19 20 20 20 21
10 10 9 9 9 8 8 7 6 6 5 5 5 6 6 6 7 5 4 4 4 3 3 3 2 3 3 5 4 4 6 8 9 13 16 17 18 18 19 20 20 20 20
10 11 11 10 10 10 10 9 8 8 9 8 7 7 7 7 7 6 6 5 4 4 4 4 3 2 2 3 3 3 5 6 9 11 14 15 17 18 18 19 20 20 20
10 10 11 11 10 10 10 10 10 10 11 10 9 9 8 7 7 7 6 5 5 5 5 4 3 2 1 2 2 2 3 3 4 8 12 14 16 17 17 19 20 21 21
11 10 10 11 10 9 10 10 10 11 11 11 10 10 9 10 9 7 5 4 4 3 3 2 2 1 1 1 2 2 2 3 4 4 4 6 9 11 15 19 20 21 21
10 11 11 11 11 10 15 16 12 10 10 10 10 9 9 10 10 10 8 6 4 2 2 1 1 1 1 1 1 0 1 2 3 3 3 6 6 7 11 15 19 21 21
10 11 11 11 11 13 17 17 16 10 10 9 8 7 6 7 8 5 5 5 4 3 2 1 0 1 1 1 0 1 2 3 5 4 5 8 6 9 11 16 20 22 22
8 8 9 9 9 11 15 15 14 9 8 7 6 6 5 5 5 4 3 3 2 1 1 0 1 2 2 1 2 3 4 5 6 5 4 6 6 7 9 13 20 21 20
7 7 6 7 8 8 12 12 10 5 5 5 5 5 5 4 5 5 3 2 3 3 3 3 4 6 8 9 8 3 3 4 5 5 3 3 4 5 6 7 12 15 16
5 5 5 5 6 5 10 11 9 4 4 3 3 3 5 5 6 6 4 3 3 3 4 5 6 7 7 8 9 4 4 3 4 4 2 2 3 4 6 4 4 8 13
Wind_Direction
170 183 182 178 188 192 191 188 206 200 192 191 202 196 173 198 166 139 150 153 155 157 158 155 151 144 136 125 115 105 96 89 83 77 71 66 61 55 51 48 43 37 32
185 189 191 186 190 194 186 191 205 194 186 185 192 199 196 195 174 147 155 160 163 166 170 170 167 161 154 144 132 121 109 98 88 80 72 66 60 52 44 40 34 28 21
198 194 192 190 194 198 191 191 204 194 180 174 186 199 205 201 180 156 159 164 168 174 178 181 178 175 170 162 152 141 128 114 99 86 74 63 53 42 31 24 16 11 6
207 199 193 201 197 197 195 187 196 183 178 174 184 200 195 191 195 176 165 167 171 178 184 188 186 184 181 176 169 160 148 136 123 104 79 58 38 20 8 359 354 350 346
211 203 199 205 202 197 192 193 192 181 180 184 192 195 193 185 202 203 176 171 174 178 183 189 188 188 187 186 183 177 168 160 156 155 141 18 352 342 339 336 334 332 330
219 210 204 206 204 199 200 195 192 191 185 182 191 192 197 193 194 201 197 182 177 176 179 183 183 186 189 192 192 189 185 182 185 196 209 260 303 314 318 319 320 320 319
232 219 210 206 207 209 205 198 188 195 199 169 157 196 247 222 209 206 200 190 182 181 178 179 182 184 190 196 197 196 194 194 197 207 226 262 288 301 308 311 312 312 311
237 238 222 217 214 217 212 205 198 191 193 176 157 144 216 249 248 220 203 202 192 184 185 183 184 185 188 192 195 196 196 198 201 211 232 263 287 297 301 304 305 306 306
224 231 235 229 223 219 222 216 207 200 202 196 181 169 180 212 217 226 217 207 197 189 190 189 189 186 182 183 186 189 190 195 203 214 233 260 282 293 297 300 302 302 302
218 220 224 226 229 228 226 223 217 213 203 204 210 218 212 175 170 204 243 218 203 196 191 191 189 184 178 171 177 181 184 190 203 220 238 260 278 289 296 298 300 300 300
228 221 219 220 225 228 229 227 224 219 215 211 202 205 229 245 215 163 203 220 219 213 191 182 177 177 174 167 167 174 181 192 207 224 246 265 280 289 294 297 298 298 298
264 238 224 222 223 225 227 229 229 226 223 219 213 202 196 203 211 198 187 176 199 223 169 124 149 158 163 165 169 175 183 195 212 230 251 271 284 293 296 297 297 296 295
288 275 252 235 229 226 226 225 227 230 228 225 222 219 214 215 197 196 195 166 151 120 57 51 54 122 139 147 162 174 189 203 221 240 260 277 288 295 298 296 295 294 294
294 303 300 281 258 242 232 225 227 229 228 227 227 222 220 215 206 198 188 167 157 169 199 204 53 112 128 146 166 181 198 216 234 252 267 278 288 293 293 292 292 293 292
324 329 328 319 309 295 269 237 231 232 229 229 226 217 215 204 193 190 178 179 180 194 209 193 189 180 157 160 176 187 204 227 249 264 273 280 285 288 288 289 290 290 289
359 1 5 5 4 3 359 343 298 256 223 228 211 190 182 148 129 130 150 157 180 187 184 163 173 153 167 184 195 202 224 246 260 271 277 280 282 284 286 288 289 288 288
14 17 19 22 22 22 20 21 22 31 66 81 90 116 115 113 114 110 110 114 109 132 146 125 118 131 156 178 199 213 237 253 263 271 278 282 284 286 288 288 288 287 286
28 28 29 34 36 35 34 38 41 47 61 71 77 93 100 102 101 100 99 97 98 85 123 136 132 153 175 183 193 218 242 253 259 272 279 283 285 287 288 287 286 285 284
36 36 38 40 41 43 45 47 54 59 64 68 75 85 90 98 96 94 94 95 92 83 84 119 128 150 173 186 196 225 248 259 267 275 284 289 290 291 289 289 288 287 285
45 45 46 46 47 51 54 57 63 67 68 67 68 73 76 85 93 94 92 93 94 93 96 107 119 144 172 184 180 223 256 259 273 286 287 289 292 294 294 294 293 291 288
53 52 54 52 51 54 59 65 67 72 73 72 69 69 72 81 87 86 93 90 88 89 98 109 123 133 163 176 216 215 249 289 291 277 279 288 297 294 291 291 291 289 286
56 57 56 56 57 62 71 73 75 71 72 72 70 66 65 63 69 75 83 83 80 83 87 97 110 153 240 242 219 203 300 316 300 305 325 296 287 282 281 280 284 288 289
62 61 58 58 62 66 71 73 74 71 70 69 67 63 63 61 56 46 52 58 47 43 53 89 161 254 263 248 342 318 283 267 263 275 299 290 276 277 277 283 289 292 294
66 66 64 63 63 66 71 74 75 72 71 67 64 59 60 56 48 39 33 30 3 342 312 302 204 257 280 271 234 240 251 271 272 270 265 277 283 277 284 284 289 291 293
73 69 70 69 66 61 64 66 72 72 75 72 69 60 55 49 33 24 24 1 343 328 328 325 305 296 292 288 279 266 276 290 294 291 259 258 288 299 286 279 285 292 296
84 80 75 72 73 62 57 54 55 56 59 56 57 63 55 36 15 12 20 10 352 348 358 342 324 311 300 291 288 250 213 235 269 290 283 298 298 328 310 283 274 289 295
Height
1548 1549 1550 1550 1552 1553 1554 1556 1557 1558 1559 1560 1560 1561 1562 1563 1563 1562 1562 1563 1563 1562 1562 1562 1562 1562 1562 1562 1562 1562 1562 1562 1562 1562 1562 1562 1561 1561 1561 1561 1561 1561 1560
1546 1547 1548 1549 1550 1551 1552 1553 1555 1556 1557 1557 1558 1559 1560 1561 1561 1560 1560 1560 1560 1560 1560 1560 1560 1561 1561 1561 1561 1561 1561 1561 1561 1561 1561 1561 1561 1560 1560 1560 1560 1559 1559
1544 1544 1545 1547 1547 1549 1550 1551 1552 1554 1554 1554 1555 1556 1557 1558 1558 1557 1556 1557 1557 1558 1558 1558 1558 1559 1559 1559 1559 1559 1559 1560 1560 1560 1560 1560 1559 1559 1559 1559 1558 1558 1558
1540 1541 1542 1543 1544 1545 1547 1548 1549 1550 1550 1551 1551 1552 1553 1554 1554 1554 1553 1553 1553 1554 1555 1555 1556 1556 1557 1557 1557 1557 1558 1558 1558 1558 1558 1558 1557 1557 1557 1557 1556 1556 1556
1536 1537 1538 1539 1540 1541 1542 1543 1544 1545 1546 1546 1547 1548 1549 1549 1550 1551 1550 1549 1549 1550 1551 1552 1552 1553 1554 1554 1554 1555 1555 1555 1555 1555 1555 1555 1555 1555 1555 1554 1554 1554 1554
1532 1533 1533 1534 1536 1536 1537 1538 1539 1540 1541 1542 1543 1543 1544 1545 1545 1546 1546 1546 1545 1545 1546 1547 1548 1549 1550 1550 1551 1551 1552 1552 1552 1552 1552 1552 1552 1552 1552 1552 1551 1551 1551
1527 1528 1528 1529 1530 1530 1531 1532 1534 1535 1536 1537 1539 1538 1538 1539 1539 1540 1540 1541 1541 1541 1541 1542 1543 1544 1545 1546 1547 1547 1548 1548 1549 1549 1549 1549 1548 1548 1548 1548 1548 1548 1547
1521 1522 1522 1523 1524 1525 1526 1527 1527 1528 1529 1531 1531 1532 1532 1533 1531 1532 1533 1534 1534 1535 1535 1536 1537 1538 1539 1541 1542 1543 1543 1544 1544 1544 1544 1544 1544 1544 1544 1544 1543 1543 1543
1514 1515 1516 1517 1518 1519 1519 1520 1521 1522 1522 1523 1524 1525 1525 1523 1524 1524 1525 1526 1527 1528 1529 1530 1531 1531 1532 1534 1536 1537 1538 1539 1539 1539 1539 1539 1539 1539 1539 1539 1538 1538 1538
1508 1508 1509 1510 1510 1512 1512 1513 1515 1515 1515 1515 1516 1516 1518 1519 1519 1517 1518 1519 1520 1521 1522 1523 1524 1525 1526 1527 1529 1531 1532 1533 1534 1534 1534 1534 1534 1534 1534 1533 1533 1532 1532
1502 1502 1502 1503 1503 1504 1505 1506 1507 1507 1508 1508 1508 1508 1510 1512 1512 1511 1511 1511 1513 1514 1515 1516 1518 1519 1520 1520 1522 1523 1526 1527 1528 1528 1528 1528 1528 1527 1527 1527 1526 1526 1525
1497 1497 1497 1496 1496 1497 1497 1498 1499 1500 1500 1500 1500 1500 1502 1503 1504 1505 1505 1504 1506 1508 1509 1510 1511 1512 1513 1513 1515 1517 1519 1520 1521 1522 1522 1522 1521 1521 1520 1519 1519 1518 1517
1490 1490 1491 1490 1490 1490 1490 1491 1491 1491 1492 1492 1493 1493 1494 1494 1496 1498 1498 1498 1498 1500 1501 1502 1503 1504 1505 1506 1508 1510 1512 1513 1514 1514 1515 1515 1514 1513 1512 1512 1511 1510 1509
1483 1484 1484 1483 1483 1483 1483 1483 1483 1484 1484 1485 1485 1486 1486 1486 1488 1488 1489 1490 1490 1491 1492 1493 1494 1495 1496 1499 1501 1503 1505 1506 1507 1507 1507 1507 1506 1505 1504 1503 1502 1501 1501
1477 1477 1477 1477 1476 1476 1476 1476 1477 1477 1477 1478 1478 1479 1479 1479 1480 1480 1481 1482 1483 1482 1482 1485 1487 1488 1490 1491 1494 1496 1498 1498 1499 1499 1499 1499 1498 1497 1496 1495 1494 1493 1492
1472 1472 1471 1471 1470 1470 1470 1470 1470 1471 1471 1471 1471 1472 1473 1473 1473 1474 1474 1474 1475 1476 1476 1477 1480 1482 1484 1486 1488 1490 1491 1492 1492 1492 1492 1491 1490 1489 1488 1487 1486 1485 1484
1468 1467 1467 1466 1465 1465 1464 1465 1465 1465 1465 1465 1466 1466 1466 1467 1467 1468 1468 1468 1469 1471 1471 1472 1475 1476 1479 1481 1482 1484 1485 1485 1485 1485 1484 1484 1482 1481 1480 1479 1478 1477 1476
1465 1464 1463 1462 1461 1460 1460 1460 1460 1460 1460 1460 1460 1461 1461 1461 1461 1462 1463 1463 1464 1465 1467 1468 1470 1472 1474 1476 1477 1478 1479 1479 1479 1478 1477 1476 1475 1474 1473 1472 1471 1470 1469
1463 1461 1460 1459 1458 1457 1456 1456 1456 1455 1455 1456 1456 1456 1456 1457 1457 1458 1459 1460 1461 1462 1464 1466 1467 1469 1470 1472 1472 1472 1473 1474 1473 1472 1471 1469 1468 1467 1466 1465 1464 1463 1462
1461 1460 1458 1457 1456 1455 1454 1453 1453 1452 1452 1453 1453 1453 1454 1454 1455 1456 1458 1459 1460 1460 1461 1463 1464 1465 1466 1467 1467 1467 1468 1468 1467 1466 1464 1463 1462 1461 1460 1459 1458 1457 1455
1460 1459 1458 1457 1455 1454 1453 1452 1452 1451 1451 1452 1452 1453 1454 1454 1455 1456 1457 1458 1458 1459 1459 1460 1461 1462 1463 1463 1464 1463 1463 1462 1461 1460 1458 1458 1457 1455 1455 1453 1451 1450 1449
1461 1460 1459 1458 1456 1455 1455 1454 1453 1453 1453 1453 1453 1454 1455 1455 1456 1457 1457 1457 1458 1458 1458 1458 1459 1459 1460 1460 1460 1459 1459 1458 1456 1456 1454 1453 1452 1450 1449 1447 1445 1444 1443
1463 1461 1461 1460 1459 1458 1457 1456 1455 1455 1455 1455 1455 1456 1456 1456 1456 1456 1456 1456 1456 1456 1456 1457 1456 1456 1456 1456 1456 1455 1455 1454 1452 1451 1449 1446 1446 1444 1443 1441 1440 1438 1436
1465 1464 1463 1462 1462 1461 1460 1459 1458 1457 1457 1457 1457 1457 1456 1456 1456 1456 1455 1454 1454 1454 1454 1453 1453 1453 1453 1453 1452 1452 1451 1449 1448 1448 1446 1441 1439 1438 1436 1435 1434 1432 1430
1467 1466 1465 1465 1464 1463 1462 1461 1460 1459 1458 1458 1457 1457 1456 1455 1455 1454 1453 1452 1452 1452 1451 1451 1451 1450 1450 1450 1449 1448 1447 1446 1443 1442 1441 1438 1434 1431 1429 1428 1428 1426 1424
1469 1468 1467 1466 1466 1464 1463 1462 1461 1460 1458 1458 1457 1456 1455 1454 1453 1452 1451 1451 1450 1450 1449 1449 1448 1448 1447 1447 1446 1445 1444 1443 1440 1438 1436 1435 1431 1428 1422 1419 1420 1419 1417